Погода Усть-Уса

Погода Усть-Уса : погода сейчас, прогноз погоды и архив. Всё, что Вы хотите узнать о погоде Усть-Уса!

Хотите узнать прогноз погоды Усть-Уса? Тогда Вам сюда: Погода Усть-Уса

Поиск расширенной информации на нашем сайте:

Полезная информация: Брошюровочные машины выбрать и купить, продажа. Брошюровочная машина в каталоге.

Другие новости

Новости СМИ2

Главная страница сайта

Новости сайта

03.07.2017

Напоминаем, что на нашем специализированном сайте Метеоцентр.Азия вы можете получить высокодетализированные автоматические прогнозы погоды по пунктам России, СНГ и мира в авиационном формате (включающие направление и скорость ветра, видимость, явления погоды, количество и форму облачности, нижнюю и верхнюю границу облачности).

Рекомендуем: Актуальная информация дорнит ростов тут.

Погода Усть-Уса - сегодня

Время (UTC), дата Ветер
(°,м/с) 
Видим.   Явления Облачность Т
(°С)
Тd
(°С)
f(%) Тe
(°С)
Pmin
(гПа)
dP
(гПа)
Po
(мм)
O2
(г/м3)
Тmin Tmax R s Состояние
почвы
00 21.09.17 330 (СЗ) 1000 м  дымка  10/10 100 м 
[St]
-0.7 -1.1 97 -2  1030.2  1.9  765  309           
03 21.09.17 340 (С) 1000 м  дымка  10/10 100 м 
[St]
+1 +0.6 97 1031.2  766  307  -0.7         
06 21.09.17 290 (З) 20000 м    10/10 210 м 
[Frnb]
+2.7 +2.3 97 +1  1031.8  0.7  767  306           
09 21.09.17 270 (З) 1000 м  слаб. морось  10/10 120 м 
[St]
+4.4 +3.9 97 +4  1031.9  0.2  767  303           
12 21.09.17 330 (СЗ) 20000 м  {дождь, морось}  10/8 500 м кучево-дожд., средняя 
[Cb calv|Ac und]
+6.2 +4.6 89 +5  1032.6  0.7  767  302           
15 21.09.17 330 (СЗ) 20000 м    10/10 360 м 
[Frnb]
+5.4 +3.6 88 +4  1033.3  0.8  768  303    +6.8  0.6     
18 21.09.17 330 (СЗ) 10 км  слаб. дождь  10/10 270 м 
[Frnb|Ns]
+4.9 +4.2 95 +4  1034.3  0.9  768  304           
21 21.09.17 350 (С) 20000 м  {дождь}  10/10 660 м кучево-дожд. 
[Cb calv]
+3.5 +2.1 91 +4  1035.6  1.2  769  306           
00 22.09.17 310 (СЗ) 20000 м  {дождь}  10/10 450 м кучево-дожд. 
[Cb calv]
+3.7 +2.8 94 +5  1036.1  0.5  770  306           
03 22.09.17 280 (З) 20000 м    10/10 400 м кучево-дожд. 
[Cb calv]
+3.5 +2.6 94 +2  1036.1  770  306  +3.5    0.4    влажная 
06 22.09.17 320 (СЗ) 4000 м  слаб. морось  10/10 180 м 
[St]
+5.4 +4.9 97 +5  1035.8  -0.2  770  303  +3.4         
09 22.09.17 310 (СЗ) 20000 м  {морось}  9/4 1000 м средняя 
[Sc|Ac trans]
+6.2 +4.9 91 +5  1036  0.2  770  303           
12 22.09.17 300 (СЗ) 20000 м  {морось}  9/4 300 м кучево-дожд., средняя 
[Cb calv|Ac trans]
+6.5 +5.3 92 +6  1036.2  0.2  770  302           
15 22.09.17 310 (СЗ) 20000 м  {ливн. осадки}  4/4 1000 м 
[Sc]
+3.5 +2.2 91 +4  1036  -0.3  770  306    +6.8  0.9     
18 22.09.17 230 (ЮЗ) 20000 м  {ливн. осадки}  10/10 1000 м 
[Sc]
+3.2 +2.2 93 +4  1035.7  -0.3  769  306           
21 22.09.17 200 (Ю) 20000 м    10/10 750 м 
[Sc]
+3.3 +1.6 89 +4  1034.9  -0.7  769  306           
00 23.09.17 250 (З) 20000 м    10/10 930 м 
[Sc]
+2.9 +1.5 90 +4  1034.2  -0.8  768  306           
03 23.09.17 210 (ЮЗ) 20000 м  в посл. час ливневой дождь  10/10 570 м кучево-дожд. 
[Cb calv]
+2.9 +2 94 +2  1033.3  -0.9  768  306  +2.8    0.0     
06 23.09.17 230 (ЮЗ) 20000 м    10/10 500 м кучево-дожд. 
[Cb calv]
+3.6 +1.8 88 +3  1032.4  -0.8  767  305           
09 23.09.17 220 (ЮЗ) 10 км  слаб. дождь  10/0 средняя 
[Ac As]
+4.6 +2.6 87 +4  1032.4  767  304           
12 23.09.17 230 (ЮЗ) 10 км  слаб. дождь  10/8 400 м средняя 
[Frnb|Ac As]
+5 +3.6 91 +5  1033.2  0.8  768  303           
15 23.09.17 260 (З) 20000 м  {дождь}  10/10 870 м 
[Sc]
+4.8 +3.8 93 +6  1034.1  0.8  768  304    +5  0.5     
18 23.09.17 290 (З) 20000 м  слаб. дождь  10/10 210 м 
[Frnb|Ns]
+4.6 +4 96 +4  1034.9  0.9  769  304           
21 23.09.17 280 (З) 1000 м  слаб. дождь  10/10 180 м 
[Frnb|Ns]
+5.2 +4.7 97 +6  1036  1.1  770  304           
00 24.09.17 260 (З) 1000 м  дымка{дождь}  10/10 210 м 
[Frnb]
+5 +4.6 97 +6  1036.3  0.3  770  304           
Время (UTC), дата Ветер
(°,м/с) 
Видим.   Явления Облачность Т
(°С)
Тd
(°С)
f(%) Тe
(°С)
Pmin
(гПа)
dP
(гПа)
Po
(мм)
O2
(г/м3)
Тmin Tmax R s Состояние
почвы

Для получения пояснительной информации подведите курсор к названию столбца.

ПОГОДА Усть-Уса - архив

Всё, что Вы хотите узнать о погоде Усть-Уса - удобно и подробно!

Выберите нужную дату (начиная с 1 января 2015* года) и нажмите кнопку "Найти".
Будут отображены архивные сводки погоды по пункту Усть-Уса, начиная с указанной даты.


Отображать данные в формате CSV (для использования в таблицах Excel)


Внимание! Наш архив погоды предназначен исключительно для личного некоммерческого использования в познавательных целях. Если Вам необходимы официальные справки о состоянии погоды (для производственных, юридических, коммерческих и т.п. целей), обращайтесь в органы Росгидромета.

*Примечание: данная дата относится к архиву по метеостанциям СССР (Россия, СНГ, Балтия).
Архив по метеостанциям Зарубежной Европы и Азии (кроме Китая) хранится 10 дней, по другим регионам земного шара (Китай, Африка, Америка, Австралия, Океания) - 1 день.

Усть-Уса - район местоположения метеостанции


Название, широта, долгота, высота метеостанции:
Усть-Уса 66°ш. 56.9°д. 78 м над ур. моря [Российская Федерация]

Дополнительная информация

В oтличие oт бoльшинства пoгoдных сайтoв мы публикуем пoдрoбную метеoинфoрмацию в детальнoм прoфессиoнальнoм фoрмате.

Характеристики температуры и влажнoсти вoздуха измеряются на высoте 2 м в тени вдали oт зданий и деревьев.
Скoрoсть ветра измеряется на высoте 10 м (на урoвне рoста челoвека скoрoсть ветра ниже в 1.5-2 раза). Если метеoстанция нахoдится в гoрoде или в лесу, тo скoрoсть ветра занижена на 2-4 м/с пo сравнению с oткрытым местoм. Скoрoсть ветра над акватoриями крупных рек и oзёр, а также на вершинах хoлмoв на 2-5 м/с выше, чем в oбычных услoвиях.
Атмoсфернoе давление в разных тoчках местнoсти мoжет значительнo oтличаться oт давления на метеoстанции, в зависимoсти oт услoвий рельефа (при пoдъёме на 10 м давление пoнижается примернo на 1 мм рт.ст.).